EW6688 Weather Reports


time (UTC)temp
C
wind
direction
speed
KPH
gust
KPH
rain 1hr
cm
rain 24hr
cm
rain mn
cm
humidity
%
barometer
mb
20260508064540 3 360 0.0 1.6 0.00 0.00 0.00 44 1009.1
20260508063028 3 360 0.0 1.6 0.00 0.00 0.00 41 1009.0
20260508061526 3 360 0.0 1.6 0.00 0.00 0.00 41 1008.9
20260508060023 4 360 0.0 1.6 0.00 0.00 0.00 43 1009.1
20260508054536 5 360 0.0 1.6 0.00 0.00 0.00 38 1009.1
20260508053021 5 360 0.0 1.6 0.00 0.00 0.00 40 1009.1
20260508051520 5 360 0.0 1.6 0.00 0.00 0.00 41 1009.3
20260508050019 5 360 0.0 1.6 0.00 0.00 0.00 41 1009.1
20260508044554 5 360 0.0 1.6 0.00 0.00 0.00 41 1009.3
20260508043049 5 360 0.0 1.6 0.00 0.00 0.00 40 1009.4
20260508041518 6 360 0.0 1.6 0.00 0.00 0.00 40 1009.3
20260508040036 6 360 0.0 1.6 0.00 0.00 0.00 40 1009.3
20260508034515 6 360 0.0 1.6 0.00 0.00 0.00 38 1009.3
20260508033017 7 360 0.0 1.6 0.00 0.00 0.00 35 1009.3
20260508031517 7 360 0.0 1.6 0.00 0.00 0.00 36 1009.1
20260508030013 8 360 0.0 1.6 0.00 0.00 0.00 35 1008.9
20260508024521 9 360 0.0 0.0 0.00 0.00 0.00 30 1008.8
20260508023011 10 360 0.0 1.6 0.00 0.00 0.00 29 1008.7
20260508021509 12 360 0.0 1.6 0.00 0.00 0.00 28 1008.5
20260508020008 13 360 0.0 0.0 0.00 0.00 0.00 25 1008.2
20260508014508 15 360 0.0 0.0 0.00 0.00 0.00 23 1008.0
20260508013005 17 360 0.0 4.8 0.00 0.00 0.00 16 1008.0
20260508011505 17 360 1.6 6.4 0.00 0.03 0.00 15 1008.0
20260508010004 17 184 0.0 3.2 0.00 0.03 0.00 15 1008.2
20260508004501 18 190 0.0 1.6 0.00 0.03 0.00 15 1008.3
20260508003028 18 190 0.0 4.8 0.00 0.03 0.00 15 1008.7
20260508001527 18 198 1.6 8.0 0.00 0.03 0.00 15 1008.9
20260507234601 18 360 0.0 3.2 0.00 0.03 0.00 17 1009.1
20260507233110 17 360 0.0 8.0 0.00 0.03 0.00 18 1009.5
20260507231548 17 360 4.8 16.1 0.00 0.08 0.00 17 1009.9
20260507230049 18 360 1.6 9.7 0.00 0.08 0.00 18 1009.9
20260507224544 18 360 0.0 12.9 0.00 0.08 0.00 18 1010.2
20260507223055 20 360 4.8 12.9 0.00 0.08 0.00 17 1010.5
20260507221542 20 360 1.6 9.7 0.00 0.15 0.00 16 1010.8
20260507220038 20 360 0.0 12.9 0.00 0.15 0.00 16 1011.1
20260507214532 20 360 1.6 9.7 0.00 0.15 0.00 16 1011.5
20260507213031 20 360 1.6 17.7 0.00 0.15 0.00 15 1012.0
20260507211523 20 360 1.6 12.9 0.00 0.15 0.00 16 1012.3
20260507210026 19 360 3.2 14.5 0.00 0.15 0.00 16 1012.6
20260507204515 18 360 3.2 14.5 0.00 0.15 0.00 20 1013.1
20260507203012 18 360 4.8 17.7 0.00 0.15 0.00 17 1013.5
20260507201509 17 360 3.2 17.7 0.00 0.15 0.00 18 1013.8
20260507200009 17 360 3.2 14.5 0.00 0.15 0.00 17 1014.1
20260507194507 17 360 3.2 12.9 0.00 0.15 0.00 16 1014.4
20260507193057 17 360 3.2 14.5 0.00 0.15 0.00 15 1014.8
20260507191554 17 360 1.6 6.4 0.00 0.18 0.00 14 1015.2
20260507190057 16 360 0.0 8.0 0.00 0.18 0.00 16 1015.4
20260507184547 16 360 1.6 6.4 0.00 0.18 0.00 20 1015.8
20260507183050 15 360 3.2 8.0 0.00 0.18 0.00 20 1016.1
20260507181535 15 360 0.0 9.7 0.00 0.18 0.00 21 1016.3
20260507180031 14 360 3.2 6.4 0.00 0.18 0.00 26 1016.3
20260507174533 13 360 0.0 6.4 0.00 0.18 0.00 30 1016.6
20260507173102 12 360 0.0 4.8 0.00 0.18 0.00 31 1016.9
20260507171548 12 360 0.0 6.4 0.00 0.23 0.00 34 1017.2
20260507170044 11 360 0.0 4.8 0.00 0.23 0.00 36 1017.4
20260507164546 10 360 0.0 6.4 0.00 0.23 0.00 40 1017.6
20260507163032 9 360 1.6 4.8 0.00 0.23 0.00 42 1017.8
20260507161527 8 360 0.0 4.8 0.00 0.23 0.00 48 1018.3
20260507160025 7 360 0.0 4.8 0.00 0.23 0.00 54 1018.3
20260507154516 6 360 0.0 6.4 0.00 0.23 0.00 52 1018.5
20260507153011 5 360 1.6 8.0 0.00 0.23 0.00 59 1018.8
20260507151507 3 360 0.0 3.2 0.00 0.23 0.00 65 1019.0
20260507144600 1 360 0.0 4.8 0.00 0.23 0.00 73 1019.0
20260507143056 0 360 0.0 0.0 0.00 0.23 0.00 82 1019.1
20260507141549 -1 360 0.0 0.0 0.00 0.23 0.00 86 1019.0
20260507140045 -2 360 0.0 0.0 0.00 0.23 0.00 85 1019.1
20260507134536 -3 360 0.0 0.0 0.00 0.23 0.00 84 1018.7
20260507133032 -3 360 0.0 0.0 0.00 0.23 0.00 83 1018.4
20260507131530 -3 360 0.0 0.0 0.00 0.23 0.00 84 1018.5
20260507130037 -3 360 0.0 0.0 0.00 0.23 0.00 84 1018.4
20260507124605 -3 360 0.0 0.0 0.00 0.23 0.00 85 1018.5
20260507123055 -3 360 0.0 0.0 0.00 0.23 0.00 85 1018.3
20260507121524 -3 360 0.0 0.0 0.00 0.23 0.00 85 1017.9
20260507120023 -3 360 0.0 0.0 0.00 0.23 0.00 86 1018.2
20260507114519 -3 360 0.0 0.0 0.00 0.23 0.00 86 1018.0
20260507113035 -3 360 0.0 0.0 0.00 0.23 0.00 86 1017.7
20260507111516 -3 360 0.0 0.0 0.00 0.23 0.00 86 1017.5
20260507110016 -3 360 0.0 0.0 0.00 0.23 0.00 86 1017.4
20260507104511 -3 360 0.0 0.0 0.00 0.23 0.00 87 1017.3
20260507103010 -3 360 0.0 0.0 0.00 0.23 0.00 87 1017.3
20260507101514 -3 360 0.0 0.0 0.00 0.23 0.00 87 1017.0
20260507100005 -3 360 0.0 0.0 0.00 0.23 0.00 87 1017.0
20260507094536 -3 360 0.0 0.0 0.00 0.23 0.00 87 1017.0
20260507093036 -2 360 0.0 0.0 0.00 0.23 0.00 87 1017.0
20260507091524 -2 360 0.0 0.0 0.00 0.23 0.00 88 1017.0
20260507090023 -2 360 0.0 0.0 0.00 0.23 0.00 87 1017.0
20260507084520 -2 360 0.0 0.0 0.00 0.23 0.00 87 1016.7
20260507083019 -2 360 0.0 0.0 0.00 0.23 0.00 88 1016.8
20260507081532 -2 360 0.0 0.0 0.00 0.23 0.00 87 1016.6
20260507080015 -2 360 0.0 0.0 0.00 0.23 0.00 87 1016.5
20260507074515 -2 360 0.0 0.0 0.00 0.23 0.00 87 1016.3
20260507073013 -2 360 0.0 0.0 0.00 0.23 0.00 87 1016.3
20260507071515 -2 360 0.0 0.0 0.00 0.23 0.00 87 1016.0
20260507070014 -2 360 0.0 0.0 0.00 0.23 0.00 87 1015.8